Weather History for Port Angeles, WA

Change the Weather History Date:

Sunday, September 29, 2013

  Actual Average Record
Temperature  
Mean Temperature 52 °F -  
Max Temperature 57 °F 63 °F 74 °F (1960)
Min Temperature 48 °F 46 °F 36 °F (1985)
Degree Days  
Heating Degree Days 14    
Growing Degree Days 2 (Base 50)    
Moisture  
Dew Point 48 °F    
Average Humidity 88    
Maximum Humidity 93    
Minimum Humidity 75    
Precipitation  
Precipitation 1.01 in - - ()
Sea Level Pressure  
Sea Level Pressure 29.35 in    
Wind  
Wind Speed 5 mph (SSW)    
Max Wind Speed 21 mph    
Max Gust Speed -    
Visibility 9 miles    
Events Rain    
Averages and records for this station are not official NWS values.
T = Trace of Precipitation, MM = Missing Value Source: NWS Daily Summary

Daily Weather History Graph

Daily Weather History Graph

Search for Another Location

Airport:

Trip Planner

Search our weather history database for the weather conditions in past years. The results will help you decide how hot, cold, wet, or windy it might be!

Date:

Astronomy

Sep. 29, 2013 Rise Set
Actual Time 7:10 AM PDT 6:56 PM PDT
Civil Twilight 6:39 AM PDT 7:27 PM PDT
Nautical Twilight 6:03 AM PDT 8:03 PM PDT
Astronomical Twilight 5:26 AM PDT 8:40 PM PDT
Moon 1:37 AM PDT (9/29) 4:14 PM PDT (9/29)
Length of Visible Light 12h 47m
Length of Day
11h 45m
Waning Crescent, 26% of the Moon is Illuminated
Sep 29
Waning Crescent
Oct 4
New
Oct 11
First Quarter
Oct 18
Full
Oct 26
Last Quarter

Hourly Weather History & Observations

Time (PDT) Temp. Dew Point Humidity Pressure Visibility Wind Dir Wind Speed Gust Speed Precip Events Conditions
12:53 AM 51.1 °F 46.9 °F 86% 29.42 in 8.0 mi South 6.9 mph - 0.06 in Rain Light Rain
1:53 AM 50.0 °F 46.0 °F 86% 29.42 in 10.0 mi SSW 4.6 mph - 0.01 in Rain Light Rain
2:53 AM 48.9 °F 46.9 °F 93% 29.44 in 6.0 mi Calm Calm - 0.08 in Rain Light Rain
3:53 AM 48.0 °F 46.0 °F 93% 29.42 in 10.0 mi West 4.6 mph - 0.03 in   Mostly Cloudy
4:53 AM 48.9 °F 46.9 °F 93% 29.44 in 10.0 mi South 4.6 mph - 0.01 in Rain Light Rain
5:53 AM 48.9 °F 46.9 °F 93% 29.45 in 10.0 mi SSW 4.6 mph - 0.03 in Rain Light Rain
6:53 AM 48.9 °F 46.9 °F 93% 29.46 in 10.0 mi SE 9.2 mph - 0.05 in Rain Light Rain
7:53 AM 48.9 °F 46.9 °F 93% 29.47 in 9.0 mi NW 4.6 mph - 0.02 in Rain Light Rain
8:53 AM 50.0 °F 48.0 °F 93% 29.47 in 5.0 mi Calm Calm - 0.10 in Rain Rain
9:53 AM 51.1 °F 48.9 °F 92% 29.48 in 10.0 mi WNW 4.6 mph - 0.03 in Rain Light Rain
10:53 AM 53.1 °F 50.0 °F 89% 29.47 in 10.0 mi Variable 3.5 mph - 0.07 in Rain Light Rain
11:53 AM 55.0 °F 48.9 °F 80% 29.47 in 10.0 mi Calm Calm - 0.00 in Rain Light Rain
12:53 PM 53.1 °F 50.0 °F 89% 29.45 in 10.0 mi NE 4.6 mph - 0.02 in Rain Light Rain
1:37 PM 54.0 °F 51.1 °F 90% 29.43 in 10.0 mi Calm Calm - 0.01 in   Overcast
1:53 PM 55.0 °F 51.1 °F 86% 29.43 in 10.0 mi East 5.8 mph - 0.01 in   Overcast
2:53 PM 55.0 °F 48.9 °F 80% 29.38 in 10.0 mi ESE 5.8 mph - N/A   Overcast
3:53 PM 55.9 °F 48.0 °F 75% 29.32 in 10.0 mi Variable 4.6 mph - N/A   Scattered Clouds
4:53 PM 54.0 °F 46.9 °F 77% 29.23 in 10.0 mi Calm Calm - N/A   Mostly Cloudy
5:53 PM 53.1 °F 50.0 °F 89% 29.12 in 10.0 mi East 5.8 mph - 0.01 in Rain Light Rain
6:53 PM 53.1 °F 50.0 °F 89% 29.05 in 5.0 mi ESE 20.7 mph - 0.12 in Rain Light Rain
7:53 PM 53.1 °F 51.1 °F 93% 29.14 in 6.0 mi West 5.8 mph - 0.13 in Rain Light Rain
8:02 PM 53.1 °F 50.0 °F 89% 29.16 in 7.0 mi WNW 5.8 mph - 0.01 in Rain Light Rain
8:53 PM 53.1 °F 51.1 °F 93% 29.18 in 4.0 mi Calm Calm - 0.14 in Rain Light Rain
9:53 PM 51.1 °F 46.9 °F 86% 29.22 in 10.0 mi West 6.9 mph - 0.06 in   Overcast
10:53 PM 50.0 °F 44.1 °F 80% 29.26 in 10.0 mi South 6.9 mph - 0.02 in   Overcast
11:53 PM 48.9 °F 42.1 °F 77% 29.31 in 10.0 mi West 6.9 mph - 0.01 in Rain Light Rain